Time,TemperatureF,DewpointF,PressureIn,WindDirection,WindDirectionDegrees,WindSpeedMPH,WindSpeedGustMPH,Humidity,HourlyPrecipIn,Conditions,Clouds,dailyrainin,SoftwareType,DateUTC
2013-08-12 00:02:00,66.4,64.6,30.04,NNE,30,0.0,0.0,94,0.00,,,0.00,Wunderground v.1.15,2013-08-12 04:02:00,
2013-08-12 00:04:00,66.3,64.5,30.04,NNE,30,0.0,0.0,94,0.00,,,0.00,Wunderground v.1.15,2013-08-12 04:04:00,
2013-08-12 00:06:00,66.3,64.5,30.04,NNE,30,0.0,0.0,94,0.00,,,0.00,Wunderground v.1.15,2013-08-12 04:06:00,
2013-08-12 00:10:00,66.2,64.4,30.05,NNE,30,0.0,0.0,94,0.00,,,0.00,Wunderground v.1.15,2013-08-12 04:10:00,
2013-08-12 00:12:00,66.2,64.4,30.05,NNE,30,0.0,0.0,94,0.00,,,0.00,Wunderground v.1.15,2013-08-12 04:12:00,
2013-08-12 00:18:00,66.1,64.3,30.05,NNE,30,0.0,0.0,94,0.00,,,0.00,Wunderground v.1.15,2013-08-12 04:18:00,
2013-08-12 00:24:00,66.0,64.2,30.05,NNE,30,0.0,0.0,94,0.00,,,0.00,Wunderground v.1.15,2013-08-12 04:24:00,
2013-08-12 00:30:00,66.0,64.2,30.05,NNE,30,0.0,0.0,94,0.00,,,0.00,Wunderground v.1.15,2013-08-12 04:30:00,
2013-08-12 00:36:00,65.9,64.1,30.05,NNE,30,0.0,0.0,94,0.00,,,0.00,Wunderground v.1.15,2013-08-12 04:36:00,
2013-08-12 00:42:00,65.8,64.0,30.05,NNE,30,0.0,0.0,94,0.00,,,0.00,Wunderground v.1.15,2013-08-12 04:42:00,
2013-08-12 00:48:00,65.7,64.2,30.05,NNE,30,0.0,0.0,95,0.00,,,0.00,Wunderground v.1.15,2013-08-12 04:48:00,
2013-08-12 00:54:00,65.7,64.2,30.05,NNE,30,0.0,0.0,95,0.00,,,0.00,Wunderground v.1.15,2013-08-12 04:54:00,
2013-08-12 01:00:00,65.6,64.1,30.05,NNE,30,0.0,0.0,95,0.00,,,0.00,Wunderground v.1.15,2013-08-12 05:00:00,
2013-08-12 01:08:00,65.6,64.1,30.05,NNE,30,0.0,0.0,95,0.00,,,0.00,Wunderground v.1.15,2013-08-12 05:08:00,
2013-08-12 01:14:00,65.5,64.0,30.05,NNE,30,0.0,0.0,95,0.00,,,0.00,Wunderground v.1.15,2013-08-12 05:14:00,
2013-08-12 01:20:00,65.6,64.4,30.05,NNE,30,0.0,0.0,96,0.00,,,0.00,Wunderground v.1.15,2013-08-12 05:20:00,
2013-08-12 01:26:00,65.5,64.0,30.05,NNE,30,0.0,0.0,95,0.00,,,0.00,Wunderground v.1.15,2013-08-12 05:26:00,
2013-08-12 01:32:00,65.4,63.9,30.05,NNE,30,0.0,0.0,95,0.00,,,0.00,Wunderground v.1.15,2013-08-12 05:32:00,
2013-08-12 01:38:00,65.2,63.7,30.05,NNE,30,0.0,0.0,95,0.00,,,0.00,Wunderground v.1.15,2013-08-12 05:38:00,
2013-08-12 01:44:00,65.1,63.6,30.06,NNE,30,0.0,0.0,95,0.00,,,0.00,Wunderground v.1.15,2013-08-12 05:44:00,
2013-08-12 01:50:00,65.1,63.9,30.05,NNE,30,0.0,0.0,96,0.00,,,0.00,Wunderground v.1.15,2013-08-12 05:50:00,
2013-08-12 01:56:00,64.9,63.4,30.05,NNE,30,0.0,0.0,95,0.00,,,0.00,Wunderground v.1.15,2013-08-12 05:56:00,
2013-08-12 02:02:00,64.9,63.7,30.05,NNE,30,0.0,0.0,96,0.00,,,0.00,Wunderground v.1.15,2013-08-12 06:02:00,
2013-08-12 02:08:00,65.0,63.8,30.04,NNE,30,0.0,0.0,96,0.00,,,0.00,Wunderground v.1.15,2013-08-12 06:08:00,
2013-08-12 02:14:00,64.9,63.7,30.04,NNE,30,0.0,0.0,96,0.00,,,0.00,Wunderground v.1.15,2013-08-12 06:14:00,
2013-08-12 02:20:00,64.8,63.6,30.04,NNE,30,0.0,0.0,96,0.00,,,0.00,Wunderground v.1.15,2013-08-12 06:20:00,
2013-08-12 02:26:00,64.6,63.4,30.05,NNE,30,0.0,0.0,96,0.00,,,0.00,Wunderground v.1.15,2013-08-12 06:26:00,
2013-08-12 02:32:00,64.6,63.4,30.04,NNE,30,0.0,0.0,96,0.00,,,0.00,Wunderground v.1.15,2013-08-12 06:32:00,
2013-08-12 02:38:00,64.8,63.6,30.04,NNE,30,0.0,0.0,96,0.00,,,0.00,Wunderground v.1.15,2013-08-12 06:38:00,
2013-08-12 02:44:00,64.7,63.5,30.04,NNE,30,0.0,0.0,96,0.00,,,0.00,Wunderground v.1.15,2013-08-12 06:44:00,
2013-08-12 02:50:00,64.5,63.3,30.04,NNE,30,0.0,0.0,96,0.00,,,0.00,Wunderground v.1.15,2013-08-12 06:50:00,
2013-08-12 02:56:00,64.4,63.2,30.04,NNE,30,0.0,0.0,96,0.00,,,0.00,Wunderground v.1.15,2013-08-12 06:56:00,
2013-08-12 03:02:00,64.3,63.1,30.03,NNE,30,0.0,0.0,96,0.00,,,0.00,Wunderground v.1.15,2013-08-12 07:02:00,
2013-08-12 03:08:00,64.1,62.9,30.03,NNE,30,0.0,0.0,96,0.00,,,0.00,Wunderground v.1.15,2013-08-12 07:08:00,
2013-08-12 03:14:00,64.0,62.8,30.03,NNE,30,0.0,0.0,96,0.00,,,0.00,Wunderground v.1.15,2013-08-12 07:14:00,
2013-08-12 03:20:00,63.9,62.7,30.02,NNE,30,0.0,0.0,96,0.00,,,0.00,Wunderground v.1.15,2013-08-12 07:20:00,
2013-08-12 03:26:00,63.9,62.7,30.02,NNE,30,0.0,0.0,96,0.00,,,0.00,Wunderground v.1.15,2013-08-12 07:26:00,
2013-08-12 03:32:00,64.0,63.1,30.02,NNE,30,0.0,0.0,97,0.00,,,0.00,Wunderground v.1.15,2013-08-12 07:32:00,
2013-08-12 03:38:00,64.0,63.1,30.02,NNE,30,0.0,0.0,97,0.00,,,0.00,Wunderground v.1.15,2013-08-12 07:38:00,
2013-08-12 03:44:00,63.9,62.7,30.02,NNE,30,0.0,0.0,96,0.00,,,0.00,Wunderground v.1.15,2013-08-12 07:44:00,
2013-08-12 03:50:00,63.8,62.9,30.02,NNE,30,0.0,0.0,97,0.00,,,0.00,Wunderground v.1.15,2013-08-12 07:50:00,
2013-08-12 03:56:00,63.9,63.0,30.02,NNE,30,0.0,0.0,97,0.00,,,0.00,Wunderground v.1.15,2013-08-12 07:56:00,
2013-08-12 04:02:00,63.8,62.9,30.02,NNE,30,0.0,0.0,97,0.00,,,0.00,Wunderground v.1.15,2013-08-12 08:02:00,
2013-08-12 04:08:00,63.7,62.8,30.02,NNE,30,0.0,0.0,97,0.00,,,0.00,Wunderground v.1.15,2013-08-12 08:08:00,
2013-08-12 04:14:00,63.6,62.4,30.02,NNE,30,0.0,0.0,96,0.00,,,0.00,Wunderground v.1.15,2013-08-12 08:14:00,
2013-08-12 04:20:00,63.5,62.3,30.01,NNE,30,0.0,0.0,96,0.00,,,0.00,Wunderground v.1.15,2013-08-12 08:20:00,
2013-08-12 04:26:00,63.4,62.5,30.02,NNE,30,0.0,0.0,97,0.00,,,0.00,Wunderground v.1.15,2013-08-12 08:26:00,
2013-08-12 04:32:00,63.5,62.6,30.02,NNE,30,0.0,0.0,97,0.00,,,0.00,Wunderground v.1.15,2013-08-12 08:32:00,
2013-08-12 04:38:00,63.5,62.6,30.02,NNE,30,0.0,0.0,97,0.00,,,0.00,Wunderground v.1.15,2013-08-12 08:38:00,
2013-08-12 04:44:00,63.6,62.7,30.02,NNE,30,0.0,0.0,97,0.00,,,0.00,Wunderground v.1.15,2013-08-12 08:44:00,
2013-08-12 04:50:00,63.6,62.7,30.02,NNE,30,0.0,0.0,97,0.00,,,0.00,Wunderground v.1.15,2013-08-12 08:50:00,
2013-08-12 04:56:00,63.4,62.5,30.01,NNE,30,0.0,0.0,97,0.00,,,0.00,Wunderground v.1.15,2013-08-12 08:56:00,
2013-08-12 05:02:00,63.2,62.3,30.01,NNE,30,0.0,0.0,97,0.00,,,0.00,Wunderground v.1.15,2013-08-12 09:02:00,
2013-08-12 05:08:00,63.2,62.3,30.01,NNE,30,0.0,0.0,97,0.00,,,0.00,Wunderground v.1.15,2013-08-12 09:08:00,
2013-08-12 05:14:00,63.2,62.3,30.01,NNE,30,0.0,0.0,97,0.00,,,0.00,Wunderground v.1.15,2013-08-12 09:14:00,
2013-08-12 05:20:00,63.2,62.3,30.01,NNE,30,0.0,0.0,97,0.00,,,0.00,Wunderground v.1.15,2013-08-12 09:20:00,
2013-08-12 05:26:00,63.0,62.1,30.01,NNE,30,0.0,0.0,97,0.00,,,0.00,Wunderground v.1.15,2013-08-12 09:26:00,
2013-08-12 05:32:00,63.1,62.2,30.01,NNE,30,0.0,0.0,97,0.00,,,0.00,Wunderground v.1.15,2013-08-12 09:32:00,
2013-08-12 05:38:00,63.3,62.4,30.01,NNE,30,0.0,0.0,97,0.00,,,0.00,Wunderground v.1.15,2013-08-12 09:38:00,
2013-08-12 05:44:00,63.4,62.5,30.01,NNE,30,0.0,0.0,97,0.00,,,0.00,Wunderground v.1.15,2013-08-12 09:44:00,
2013-08-12 05:50:00,63.5,62.6,30.01,NNE,30,0.0,0.0,97,0.00,,,0.00,Wunderground v.1.15,2013-08-12 09:50:00,
2013-08-12 05:56:00,63.5,62.6,30.01,NNE,30,0.0,0.0,97,0.00,,,0.00,Wunderground v.1.15,2013-08-12 09:56:00,
2013-08-12 06:02:00,63.6,62.7,30.00,NNE,30,0.0,0.0,97,0.00,,,0.00,Wunderground v.1.15,2013-08-12 10:02:00,
2013-08-12 06:08:00,63.7,62.8,30.00,NNE,30,0.0,0.0,97,0.00,,,0.00,Wunderground v.1.15,2013-08-12 10:08:00,
2013-08-12 06:14:00,63.7,62.8,30.00,NNE,30,0.0,0.0,97,0.00,,,0.00,Wunderground v.1.15,2013-08-12 10:14:00,
2013-08-12 06:20:00,63.6,62.7,30.00,NNE,30,0.0,0.0,97,0.00,,,0.00,Wunderground v.1.15,2013-08-12 10:20:00,
2013-08-12 06:26:00,63.6,62.7,29.99,NNE,30,0.0,0.0,97,0.00,,,0.00,Wunderground v.1.15,2013-08-12 10:26:00,
2013-08-12 06:32:00,63.7,62.8,29.99,NNE,30,0.0,0.0,97,0.00,,,0.00,Wunderground v.1.15,2013-08-12 10:32:00,
2013-08-12 06:38:00,63.8,62.9,30.00,NNE,30,0.0,0.0,97,0.00,,,0.00,Wunderground v.1.15,2013-08-12 10:38:00,
2013-08-12 06:44:00,63.9,63.3,29.99,NNE,30,0.0,0.0,98,0.00,,,0.00,Wunderground v.1.15,2013-08-12 10:44:00,
2013-08-12 06:50:00,64.0,63.4,30.00,NNE,30,0.0,0.0,98,0.00,,,0.00,Wunderground v.1.15,2013-08-12 10:50:00,
2013-08-12 06:56:00,64.2,63.6,30.00,NNE,30,0.0,0.0,98,0.00,,,0.00,Wunderground v.1.15,2013-08-12 10:56:00,
2013-08-12 07:02:00,64.3,63.7,29.99,NNE,30,0.0,0.0,98,0.00,,,0.00,Wunderground v.1.15,2013-08-12 11:02:00,
2013-08-12 07:08:00,64.4,63.8,29.99,NNE,30,0.0,0.0,98,0.00,,,0.00,Wunderground v.1.15,2013-08-12 11:08:00,
2013-08-12 07:14:00,64.6,64.0,30.00,NNE,30,0.0,0.0,98,0.00,,,0.00,Wunderground v.1.15,2013-08-12 11:14:00,
2013-08-12 07:20:00,64.7,64.1,30.00,NNE,30,0.0,0.0,98,0.00,,,0.00,Wunderground v.1.15,2013-08-12 11:20:00,
2013-08-12 07:26:00,64.7,64.1,30.00,NNE,30,0.0,0.0,98,0.00,,,0.00,Wunderground v.1.15,2013-08-12 11:26:00,
2013-08-12 07:32:00,64.8,64.2,30.00,NNE,30,0.0,0.0,98,0.00,,,0.00,Wunderground v.1.15,2013-08-12 11:32:00,
2013-08-12 07:38:00,64.8,64.2,30.00,NNE,30,0.0,0.0,98,0.00,,,0.00,Wunderground v.1.15,2013-08-12 11:38:00,
2013-08-12 07:44:00,64.9,64.3,30.00,NNE,30,0.0,0.0,98,0.00,,,0.00,Wunderground v.1.15,2013-08-12 11:44:00,
2013-08-12 07:50:00,64.8,64.2,30.00,NE,51,0.0,0.0,98,0.00,,,0.00,Wunderground v.1.15,2013-08-12 11:50:00,
2013-08-12 07:56:00,64.9,64.3,30.00,NE,51,0.0,0.0,98,0.00,,,0.00,Wunderground v.1.15,2013-08-12 11:56:00,
2013-08-12 08:02:00,65.4,64.8,30.00,NE,51,0.0,1.0,98,0.00,,,0.00,Wunderground v.1.15,2013-08-12 12:02:00,
2013-08-12 08:08:00,65.8,65.2,29.99,NE,51,0.0,1.0,98,0.00,,,0.00,Wunderground v.1.15,2013-08-12 12:08:00,
2013-08-12 08:14:00,66.3,65.7,29.99,NE,51,0.0,1.0,98,0.00,,,0.00,Wunderground v.1.15,2013-08-12 12:14:00,
2013-08-12 08:20:00,66.8,66.2,29.98,NE,51,0.0,0.0,98,0.00,,,0.00,Wunderground v.1.15,2013-08-12 12:20:00,
2013-08-12 08:26:00,67.1,66.5,29.99,NNW,335,0.0,0.0,98,0.00,,,0.00,Wunderground v.1.15,2013-08-12 12:26:00,
2013-08-12 08:32:00,67.2,66.6,29.99,NNW,335,0.0,0.0,98,0.00,,,0.00,Wunderground v.1.15,2013-08-12 12:32:00,
2013-08-12 08:38:00,67.4,66.8,30.00,NNW,335,0.0,0.0,98,0.00,,,0.00,Wunderground v.1.15,2013-08-12 12:38:00,
2013-08-12 08:44:00,67.7,67.1,30.00,NNW,335,0.0,0.0,98,0.00,,,0.00,Wunderground v.1.15,2013-08-12 12:44:00,
2013-08-12 08:50:00,67.9,67.3,30.00,NNW,335,0.0,1.0,98,0.00,,,0.00,Wunderground v.1.15,2013-08-12 12:50:00,
2013-08-12 08:56:00,68.1,67.5,29.99,NNW,335,1.0,1.0,98,0.00,,,0.00,Wunderground v.1.15,2013-08-12 12:56:00,
2013-08-12 09:02:00,68.3,67.7,30.00,NNW,335,0.0,1.0,98,0.00,,,0.00,Wunderground v.1.15,2013-08-12 13:02:00,
2013-08-12 09:08:00,68.6,68.0,29.99,NNW,335,0.0,1.0,98,0.00,,,0.00,Wunderground v.1.15,2013-08-12 13:08:00,
2013-08-12 09:14:00,68.8,68.2,29.99,NNW,335,0.0,0.0,98,0.00,,,0.00,Wunderground v.1.15,2013-08-12 13:14:00,
2013-08-12 09:20:00,69.0,68.4,29.99,NNW,335,0.0,0.0,98,0.00,,,0.00,Wunderground v.1.15,2013-08-12 13:20:00,
2013-08-12 09:26:00,69.5,68.9,29.99,NNW,335,0.0,1.0,98,0.00,,,0.00,Wunderground v.1.15,2013-08-12 13:26:00,
2013-08-12 09:32:00,69.9,69.3,29.99,NNW,335,0.0,1.0,98,0.00,,,0.00,Wunderground v.1.15,2013-08-12 13:32:00,
2013-08-12 09:38:00,70.6,70.0,29.99,NNW,335,0.0,1.0,98,0.00,,,0.00,Wunderground v.1.15,2013-08-12 13:38:00,
2013-08-12 09:44:00,71.0,70.1,29.99,NNW,335,0.0,2.0,97,0.00,,,0.00,Wunderground v.1.15,2013-08-12 13:44:00,
2013-08-12 09:50:00,71.6,70.4,29.99,NNW,335,0.0,0.0,96,0.00,,,0.00,Wunderground v.1.15,2013-08-12 13:50:00,
2013-08-12 09:56:00,71.6,69.8,29.99,ESE,102,1.0,4.0,94,0.00,,,0.00,Wunderground v.1.15,2013-08-12 13:56:00,
2013-08-12 10:02:00,71.6,68.5,29.99,SSE,148,2.0,2.0,90,0.00,,,0.00,Wunderground v.1.15,2013-08-12 14:02:00,
2013-08-12 10:08:00,71.7,68.6,29.99,SSE,148,0.0,2.0,90,0.00,,,0.00,Wunderground v.1.15,2013-08-12 14:08:00,
2013-08-12 10:14:00,71.8,68.7,29.99,SSE,165,0.0,0.0,90,0.00,,,0.00,Wunderground v.1.15,2013-08-12 14:14:00,
2013-08-12 10:20:00,72.1,69.6,29.98,West,271,0.0,1.0,92,0.00,,,0.00,Wunderground v.1.15,2013-08-12 14:20:00,
2013-08-12 10:26:00,72.5,70.4,29.99,West,272,1.0,1.0,93,0.00,,,0.00,Wunderground v.1.15,2013-08-12 14:26:00,
2013-08-12 10:32:00,72.6,70.1,29.98,West,272,0.0,0.0,92,0.00,,,0.00,Wunderground v.1.15,2013-08-12 14:32:00,
2013-08-12 10:38:00,72.7,69.9,29.98,West,272,0.0,0.0,91,0.00,,,0.01,Wunderground v.1.15,2013-08-12 14:38:00,
2013-08-12 10:44:00,72.7,70.2,29.98,West,271,0.0,0.0,92,0.00,,,0.01,Wunderground v.1.15,2013-08-12 14:44:00,
2013-08-12 10:50:00,72.7,69.9,29.98,West,272,0.0,0.0,91,0.00,,,0.01,Wunderground v.1.15,2013-08-12 14:50:00,
2013-08-12 10:56:00,72.8,70.3,29.98,West,272,0.0,0.0,92,0.00,,,0.01,Wunderground v.1.15,2013-08-12 14:56:00,
2013-08-12 11:02:00,72.9,70.1,29.98,West,272,0.0,0.0,91,0.00,,,0.01,Wunderground v.1.15,2013-08-12 15:02:00,
2013-08-12 11:08:00,73.1,70.3,29.98,West,272,0.0,0.0,91,0.00,,,0.01,Wunderground v.1.15,2013-08-12 15:08:00,
2013-08-12 11:14:00,73.3,70.5,29.98,South,177,0.0,1.0,91,0.00,,,0.01,Wunderground v.1.15,2013-08-12 15:14:00,
2013-08-12 11:20:00,73.5,70.7,29.98,South,177,1.0,1.0,91,0.00,,,0.01,Wunderground v.1.15,2013-08-12 15:20:00,
2013-08-12 11:26:00,73.9,70.5,29.98,East,82,2.0,3.0,89,0.00,,,0.01,Wunderground v.1.15,2013-08-12 15:26:00,
2013-08-12 11:32:00,74.2,70.7,29.98,ESE,103,2.0,2.0,89,0.00,,,0.01,Wunderground v.1.15,2013-08-12 15:32:00,
2013-08-12 11:38:00,74.4,70.6,29.97,ESE,103,1.0,2.0,88,0.00,,,0.01,Wunderground v.1.15,2013-08-12 15:38:00,
2013-08-12 11:44:00,74.7,70.6,29.98,ESE,103,0.0,1.0,87,0.00,,,0.01,Wunderground v.1.15,2013-08-12 15:44:00,
2013-08-12 11:50:00,74.9,70.8,29.98,ESE,103,0.0,0.0,87,0.00,,,0.01,Wunderground v.1.15,2013-08-12 15:50:00,
2013-08-12 11:56:00,75.1,71.3,29.98,ESE,103,0.0,0.0,88,0.00,,,0.01,Wunderground v.1.15,2013-08-12 15:56:00,
2013-08-12 12:02:00,75.1,71.3,29.98,ESE,103,0.0,0.0,88,0.00,,,0.01,Wunderground v.1.15,2013-08-12 16:02:00,
2013-08-12 12:08:00,74.8,71.3,29.98,ESE,103,0.0,2.0,89,0.00,,,0.01,Wunderground v.1.15,2013-08-12 16:08:00,
2013-08-12 12:14:00,74.0,70.9,29.98,NNE,25,1.0,1.0,90,0.00,,,0.02,Wunderground v.1.15,2013-08-12 16:14:00,
2013-08-12 12:20:00,73.1,70.3,29.99,North,5,1.0,1.0,91,0.00,,,0.02,Wunderground v.1.15,2013-08-12 16:20:00,
2013-08-12 12:26:00,72.3,69.8,29.99,NW,307,2.0,4.0,92,0.05,,,0.03,Wunderground v.1.15,2013-08-12 16:26:00,
2013-08-12 12:32:00,71.7,69.6,29.98,NNW,336,2.0,4.0,93,0.11,,,0.04,Wunderground v.1.15,2013-08-12 16:32:00,
2013-08-12 12:38:00,71.2,69.4,29.97,NNW,336,1.0,4.0,94,0.09,,,0.04,Wunderground v.1.15,2013-08-12 16:38:00,
2013-08-12 12:44:00,71.0,69.2,29.97,NNW,336,0.0,1.0,94,0.15,,,0.06,Wunderground v.1.15,2013-08-12 16:44:00,
2013-08-12 12:50:00,70.9,69.4,29.98,NNW,336,0.0,0.0,95,1.36,,,0.10,Wunderground v.1.15,2013-08-12 16:50:00,
2013-08-12 12:56:00,71.0,69.5,29.97,NNW,336,0.0,0.0,95,0.91,,,0.21,Wunderground v.1.15,2013-08-12 16:56:00,
2013-08-12 13:02:00,71.2,70.0,29.97,NNW,336,0.0,0.0,96,0.80,,,0.31,Wunderground v.1.15,2013-08-12 17:02:00,
2013-08-12 13:08:00,71.9,71.0,29.97,ENE,74,0.0,3.0,97,0.56,,,0.38,Wunderground v.1.15,2013-08-12 17:08:00,
2013-08-12 13:14:00,73.3,72.4,29.97,East,92,1.0,2.0,97,0.38,,,0.42,Wunderground v.1.15,2013-08-12 17:14:00,
2013-08-12 13:20:00,73.5,72.6,29.97,ESE,105,3.0,3.0,97,0.24,,,0.45,Wunderground v.1.15,2013-08-12 17:20:00,
2013-08-12 13:26:00,73.6,72.7,29.96,ESE,105,2.0,3.0,97,0.07,,,0.45,Wunderground v.1.15,2013-08-12 17:26:00,
2013-08-12 13:32:00,74.2,73.3,29.96,ESE,105,1.0,2.0,97,0.04,,,0.45,Wunderground v.1.15,2013-08-12 17:32:00,
2013-08-12 13:38:00,74.7,73.8,29.96,ESE,105,1.0,2.0,97,0.00,,,0.45,Wunderground v.1.15,2013-08-12 17:38:00,
2013-08-12 13:44:00,74.8,73.9,29.95,ESE,105,0.0,1.0,97,0.00,,,0.46,Wunderground v.1.15,2013-08-12 17:44:00,
2013-08-12 13:50:00,75.2,74.0,29.95,ESE,105,0.0,0.0,96,0.00,,,0.46,Wunderground v.1.15,2013-08-12 17:50:00,
2013-08-12 13:56:00,75.5,73.7,29.95,ESE,105,0.0,2.0,94,0.00,,,0.46,Wunderground v.1.15,2013-08-12 17:56:00,
2013-08-12 14:02:00,75.8,73.9,29.95,ESE,105,0.0,1.0,94,0.00,,,0.46,Wunderground v.1.15,2013-08-12 18:02:00,
2013-08-12 14:08:00,76.0,73.8,29.94,ESE,105,0.0,1.0,93,0.00,,,0.46,Wunderground v.1.15,2013-08-12 18:08:00,
2013-08-12 14:14:00,76.5,74.3,29.94,ENE,59,1.0,3.0,93,0.00,,,0.46,Wunderground v.1.15,2013-08-12 18:14:00,
2013-08-12 14:20:00,77.0,74.8,29.94,ENE,59,1.0,1.0,93,0.00,,,0.46,Wunderground v.1.15,2013-08-12 18:20:00,
2013-08-12 14:26:00,77.5,75.0,29.93,ENE,60,0.0,1.0,92,0.00,,,0.46,Wunderground v.1.15,2013-08-12 18:26:00,
2013-08-12 14:32:00,77.5,74.3,29.93,ENE,67,1.0,2.0,90,0.00,,,0.46,Wunderground v.1.15,2013-08-12 18:32:00,
2013-08-12 14:38:00,77.9,75.4,29.93,NNE,30,1.0,3.0,92,0.00,,,0.46,Wunderground v.1.15,2013-08-12 18:38:00,
2013-08-12 14:44:00,78.3,75.8,29.92,NNE,22,1.0,3.0,92,0.00,,,0.46,Wunderground v.1.15,2013-08-12 18:44:00,
2013-08-12 14:52:00,78.9,74.7,29.92,NNE,22,0.0,0.0,87,0.00,,,0.46,Wunderground v.1.15,2013-08-12 18:52:00,
2013-08-12 14:58:00,79.0,74.5,29.92,NNE,19,1.0,3.0,86,0.00,,,0.46,Wunderground v.1.15,2013-08-12 18:58:00,
2013-08-12 15:04:00,79.2,74.6,29.91,NNE,17,1.0,3.0,86,0.00,,,0.46,Wunderground v.1.15,2013-08-12 19:04:00,
2013-08-12 15:10:00,79.3,75.1,29.91,North,360,1.0,1.0,87,0.00,,,0.46,Wunderground v.1.15,2013-08-12 19:10:00,
2013-08-12 15:16:00,79.4,74.8,29.91,NNW,342,1.0,3.0,86,0.00,,,0.46,Wunderground v.1.15,2013-08-12 19:16:00,
2013-08-12 15:22:00,79.8,75.9,29.91,NNW,334,1.0,1.0,88,0.00,,,0.46,Wunderground v.1.15,2013-08-12 19:22:00,
2013-08-12 15:28:00,80.0,75.1,29.91,NNW,334,0.0,1.0,85,0.00,,,0.46,Wunderground v.1.15,2013-08-12 19:28:00,
2013-08-12 15:34:00,80.4,75.5,29.91,NNW,332,0.0,0.0,85,0.00,,,0.46,Wunderground v.1.15,2013-08-12 19:34:00,
2013-08-12 15:40:00,80.8,75.2,29.91,WNW,290,1.0,1.0,83,0.00,,,0.46,Wunderground v.1.15,2013-08-12 19:40:00,
2013-08-12 15:46:00,81.0,75.3,29.91,West,279,1.0,3.0,83,0.00,,,0.46,Wunderground v.1.15,2013-08-12 19:46:00,
2013-08-12 15:52:00,80.9,74.9,29.91,West,279,1.0,4.0,82,0.00,,,0.46,Wunderground v.1.15,2013-08-12 19:52:00,
2013-08-12 15:58:00,80.6,74.2,29.91,West,279,1.0,4.0,81,0.00,,,0.46,Wunderground v.1.15,2013-08-12 19:58:00,
2013-08-12 16:04:00,80.3,74.3,29.91,NNW,338,0.0,1.0,82,0.00,,,0.46,Wunderground v.1.15,2013-08-12 20:04:00,
2013-08-12 16:10:00,80.1,74.5,29.91,NNW,331,0.0,0.0,83,0.00,,,0.46,Wunderground v.1.15,2013-08-12 20:10:00,
2013-08-12 16:16:00,80.0,74.7,29.91,NNW,331,0.0,0.0,84,0.00,,,0.46,Wunderground v.1.15,2013-08-12 20:16:00,
2013-08-12 16:22:00,79.7,74.8,29.90,NNW,331,0.0,0.0,85,0.00,,,0.46,Wunderground v.1.15,2013-08-12 20:22:00,
2013-08-12 16:28:00,79.4,74.5,29.90,North,350,0.0,0.0,85,0.00,,,0.46,Wunderground v.1.15,2013-08-12 20:28:00,
2013-08-12 16:34:00,79.2,75.0,29.90,North,350,0.0,0.0,87,0.00,,,0.46,Wunderground v.1.15,2013-08-12 20:34:00,
2013-08-12 16:40:00,79.1,75.6,29.90,North,350,0.0,0.0,89,0.00,,,0.46,Wunderground v.1.15,2013-08-12 20:40:00,
2013-08-12 16:46:00,79.0,74.8,29.90,North,350,0.0,0.0,87,0.00,,,0.46,Wunderground v.1.15,2013-08-12 20:46:00,
2013-08-12 16:52:00,79.2,75.0,29.89,North,350,0.0,0.0,87,0.00,,,0.46,Wunderground v.1.15,2013-08-12 20:52:00,
2013-08-12 16:58:00,79.4,74.5,29.88,North,350,0.0,0.0,85,0.00,,,0.46,Wunderground v.1.15,2013-08-12 20:58:00,
2013-08-12 17:04:00,79.6,74.3,29.88,North,350,0.0,0.0,84,0.00,,,0.46,Wunderground v.1.15,2013-08-12 21:04:00,
2013-08-12 17:10:00,79.9,75.0,29.88,North,350,0.0,0.0,85,0.00,,,0.46,Wunderground v.1.15,2013-08-12 21:10:00,
2013-08-12 17:16:00,80.0,74.7,29.88,North,350,0.0,0.0,84,0.00,,,0.46,Wunderground v.1.15,2013-08-12 21:16:00,
2013-08-12 17:22:00,80.1,74.8,29.88,West,261,0.0,0.0,84,0.00,,,0.46,Wunderground v.1.15,2013-08-12 21:22:00,
2013-08-12 17:28:00,80.0,74.7,29.87,West,263,0.0,0.0,84,0.00,,,0.46,Wunderground v.1.15,2013-08-12 21:28:00,
2013-08-12 17:34:00,80.0,74.7,29.88,West,263,0.0,0.0,84,0.00,,,0.46,Wunderground v.1.15,2013-08-12 21:34:00,
2013-08-12 17:40:00,79.9,74.6,29.88,West,263,0.0,0.0,84,0.00,,,0.46,Wunderground v.1.15,2013-08-12 21:40:00,
2013-08-12 17:46:00,79.9,75.7,29.88,West,263,0.0,0.0,87,0.00,,,0.46,Wunderground v.1.15,2013-08-12 21:46:00,
2013-08-12 17:52:00,79.8,75.6,29.88,SW,216,0.0,0.0,87,0.00,,,0.46,Wunderground v.1.15,2013-08-12 21:52:00,
2013-08-12 17:58:00,79.5,75.6,29.88,South,175,0.0,0.0,88,0.00,,,0.46,Wunderground v.1.15,2013-08-12 21:58:00,
2013-08-12 18:04:00,79.1,75.2,29.88,South,175,0.0,0.0,88,0.00,,,0.46,Wunderground v.1.15,2013-08-12 22:04:00,
2013-08-12 18:10:00,78.9,75.0,29.88,South,175,0.0,0.0,88,0.00,,,0.46,Wunderground v.1.15,2013-08-12 22:10:00,
2013-08-12 18:16:00,78.8,75.3,29.88,South,175,0.0,0.0,89,0.00,,,0.46,Wunderground v.1.15,2013-08-12 22:16:00,
2013-08-12 18:22:00,78.6,75.1,29.88,South,175,0.0,0.0,89,0.00,,,0.46,Wunderground v.1.15,2013-08-12 22:22:00,
2013-08-12 18:28:00,78.3,74.5,29.89,South,175,0.0,0.0,88,0.00,,,0.46,Wunderground v.1.15,2013-08-12 22:28:00,
2013-08-12 18:34:00,78.0,74.2,29.89,NW,315,0.0,2.0,88,0.00,,,0.46,Wunderground v.1.15,2013-08-12 22:34:00,
2013-08-12 18:40:00,77.9,74.4,29.89,NW,315,0.0,0.0,89,0.00,,,0.46,Wunderground v.1.15,2013-08-12 22:40:00,
2013-08-12 18:46:00,77.7,74.2,29.90,NW,315,0.0,0.0,89,0.00,,,0.46,Wunderground v.1.15,2013-08-12 22:46:00,
2013-08-12 18:52:00,77.6,74.1,29.90,NW,315,0.0,0.0,89,0.00,,,0.46,Wunderground v.1.15,2013-08-12 22:52:00,
2013-08-12 18:58:00,77.6,74.4,29.89,NW,323,0.0,1.0,90,0.00,,,0.46,Wunderground v.1.15,2013-08-12 22:58:00,
2013-08-12 19:04:00,77.4,74.2,29.89,West,273,0.0,0.0,90,0.00,,,0.46,Wunderground v.1.15,2013-08-12 23:04:00,
2013-08-12 19:10:00,77.2,74.4,29.88,West,263,0.0,0.0,91,0.00,,,0.46,Wunderground v.1.15,2013-08-12 23:10:00,
2013-08-12 19:16:00,77.0,74.2,29.88,WSW,252,0.0,0.0,91,0.00,,,0.46,Wunderground v.1.15,2013-08-12 23:16:00,
2013-08-12 19:22:00,76.8,74.3,29.89,NW,313,1.0,1.0,92,0.00,,,0.47,Wunderground v.1.15,2013-08-12 23:22:00,
2013-08-12 19:28:00,76.6,74.4,29.89,NW,313,1.0,1.0,93,0.00,,,0.47,Wunderground v.1.15,2013-08-12 23:28:00,
2013-08-12 19:34:00,76.4,74.2,29.88,NW,313,0.0,0.0,93,0.08,,,0.48,Wunderground v.1.15,2013-08-12 23:34:00,
2013-08-12 19:40:00,76.2,74.3,29.88,NW,313,0.0,0.0,94,0.07,,,0.49,Wunderground v.1.15,2013-08-12 23:40:00,
2013-08-12 19:46:00,76.1,74.2,29.88,NW,313,0.0,0.0,94,0.10,,,0.50,Wunderground v.1.15,2013-08-12 23:46:00,
2013-08-12 19:52:00,75.9,74.0,29.88,NW,313,0.0,1.0,94,0.07,,,0.50,Wunderground v.1.15,2013-08-12 23:52:00,
2013-08-12 19:58:00,75.5,73.7,29.88,NW,313,1.0,2.0,94,0.06,,,0.51,Wunderground v.1.15,2013-08-12 23:58:00,
2013-08-12 20:04:00,75.1,73.3,29.88,ESE,121,0.0,1.0,94,0.08,,,0.52,Wunderground v.1.15,2013-08-13 00:04:00,
2013-08-12 20:10:00,74.7,72.5,29.87,East,89,1.0,1.0,93,0.07,,,0.52,Wunderground v.1.15,2013-08-13 00:10:00,
2013-08-12 20:16:00,74.4,72.6,29.86,East,89,1.0,1.0,94,0.04,,,0.52,Wunderground v.1.15,2013-08-13 00:16:00,
2013-08-12 20:22:00,74.2,72.4,29.86,East,89,0.0,0.0,94,0.00,,,0.53,Wunderground v.1.15,2013-08-13 00:22:00,
2013-08-12 20:28:00,74.0,72.2,29.85,East,89,0.0,0.0,94,0.00,,,0.53,Wunderground v.1.15,2013-08-13 00:28:00,
2013-08-12 20:34:00,73.8,72.3,29.86,East,85,0.0,0.0,95,0.00,,,0.53,Wunderground v.1.15,2013-08-13 00:34:00,
2013-08-12 20:40:00,73.7,72.2,29.85,East,85,0.0,0.0,95,0.00,,,0.54,Wunderground v.1.15,2013-08-13 00:40:00,
2013-08-12 20:46:00,73.5,72.0,29.85,East,85,0.0,0.0,95,0.00,,,0.54,Wunderground v.1.15,2013-08-13 00:46:00,
2013-08-12 20:52:00,73.4,71.9,29.85,East,85,0.0,0.0,95,0.00,,,0.54,Wunderground v.1.15,2013-08-13 00:52:00,
2013-08-12 20:58:00,73.3,71.8,29.85,East,85,0.0,0.0,95,0.00,,,0.54,Wunderground v.1.15,2013-08-13 00:58:00,
2013-08-12 21:04:00,73.3,72.1,29.85,East,85,0.0,0.0,96,0.00,,,0.54,Wunderground v.1.15,2013-08-13 01:04:00,
2013-08-12 21:10:00,73.3,72.1,29.85,East,85,0.0,0.0,96,0.00,,,0.54,Wunderground v.1.15,2013-08-13 01:10:00,
2013-08-12 21:16:00,73.2,72.0,29.86,East,85,0.0,0.0,96,0.00,,,0.54,Wunderground v.1.15,2013-08-13 01:16:00,
2013-08-12 21:22:00,73.2,72.0,29.86,East,85,0.0,0.0,96,0.00,,,0.54,Wunderground v.1.15,2013-08-13 01:22:00,
2013-08-12 21:28:00,73.5,72.6,29.86,East,85,0.0,1.0,97,0.00,,,0.54,Wunderground v.1.15,2013-08-13 01:28:00,
2013-08-12 21:34:00,73.9,73.0,29.87,East,85,0.0,0.0,97,0.00,,,0.54,Wunderground v.1.15,2013-08-13 01:34:00,
2013-08-12 21:40:00,74.2,73.3,29.87,East,85,0.0,2.0,97,0.00,,,0.54,Wunderground v.1.15,2013-08-13 01:40:00,
2013-08-12 21:46:00,74.3,73.4,29.87,South,180,1.0,2.0,97,0.00,,,0.55,Wunderground v.1.15,2013-08-13 01:46:00,
2013-08-12 21:52:00,74.3,73.4,29.87,South,180,1.0,1.0,97,0.00,,,0.55,Wunderground v.1.15,2013-08-13 01:52:00,
2013-08-12 21:58:00,74.2,73.3,29.87,West,273,1.0,1.0,97,0.00,,,0.55,Wunderground v.1.15,2013-08-13 01:58:00,
2013-08-12 22:04:00,74.1,73.2,29.87,West,273,1.0,1.0,97,0.00,,,0.55,Wunderground v.1.15,2013-08-13 02:04:00,
2013-08-12 22:10:00,73.9,73.0,29.88,West,273,0.0,2.0,97,0.00,,,0.55,Wunderground v.1.15,2013-08-13 02:10:00,
2013-08-12 22:16:00,73.8,72.9,29.88,West,273,0.0,2.0,97,0.00,,,0.55,Wunderground v.1.15,2013-08-13 02:16:00,
2013-08-12 22:22:00,73.8,72.9,29.89,West,269,1.0,3.0,97,0.00,,,0.55,Wunderground v.1.15,2013-08-13 02:22:00,
2013-08-12 22:28:00,73.7,72.8,29.89,West,269,1.0,3.0,97,0.00,,,0.55,Wunderground v.1.15,2013-08-13 02:28:00,
2013-08-12 22:34:00,73.7,72.8,29.89,West,269,1.0,1.0,97,0.00,,,0.55,Wunderground v.1.15,2013-08-13 02:34:00,
2013-08-12 22:40:00,73.5,72.6,29.89,West,269,1.0,1.0,97,0.00,,,0.55,Wunderground v.1.15,2013-08-13 02:40:00,
2013-08-12 22:46:00,73.4,72.5,29.89,West,267,0.0,3.0,97,0.00,,,0.55,Wunderground v.1.15,2013-08-13 02:46:00,
2013-08-12 22:52:00,73.3,72.4,29.89,West,267,1.0,1.0,97,0.00,,,0.55,Wunderground v.1.15,2013-08-13 02:52:00,
2013-08-12 22:58:00,73.2,72.3,29.89,West,267,1.0,1.0,97,0.00,,,0.55,Wunderground v.1.15,2013-08-13 02:58:00,
2013-08-12 23:04:00,73.1,72.2,29.89,West,267,0.0,2.0,97,0.00,,,0.55,Wunderground v.1.15,2013-08-13 03:04:00,
2013-08-12 23:10:00,73.0,72.1,29.89,West,267,0.0,0.0,97,0.00,,,0.55,Wunderground v.1.15,2013-08-13 03:10:00,
2013-08-12 23:16:00,72.9,72.0,29.89,West,267,0.0,0.0,97,0.00,,,0.55,Wunderground v.1.15,2013-08-13 03:16:00,
2013-08-12 23:22:00,72.9,72.0,29.89,West,267,0.0,0.0,97,0.00,,,0.55,Wunderground v.1.15,2013-08-13 03:22:00,
2013-08-12 23:28:00,72.8,71.9,29.89,West,267,0.0,1.0,97,0.00,,,0.55,Wunderground v.1.15,2013-08-13 03:28:00,
2013-08-12 23:34:00,72.7,71.8,29.89,West,267,0.0,2.0,97,0.00,,,0.55,Wunderground v.1.15,2013-08-13 03:34:00,
2013-08-12 23:40:00,72.6,71.7,29.89,West,267,1.0,1.0,97,0.00,,,0.55,Wunderground v.1.15,2013-08-13 03:40:00,
2013-08-12 23:46:00,72.6,71.7,29.89,West,267,0.0,1.0,97,0.00,,,0.56,Wunderground v.1.15,2013-08-13 03:46:00,
2013-08-12 23:54:00,72.6,71.7,29.88,West,267,1.0,1.0,97,0.00,,,0.56,Wunderground v.1.15,2013-08-13 03:54:00,